TimeCDT,TemperatureF,Dew PointF,Humidity,Sea Level PressureIn,VisibilityMPH,Wind Direction,Wind SpeedMPH,Gust SpeedMPH,PrecipitationIn,Events,Conditions,WindDirDegrees,DateUTC
12:15 AM,69.3,67.6,95,30.12,10.0,SSE,4.6,-,N/A,Rain,Rain,150,2013-10-14 05:15:00
12:35 AM,69.3,67.6,95,30.11,7.0,SE,4.6,-,0.01,,Drizzle,140,2013-10-14 05:35:00
12:55 AM,69.3,67.6,95,30.11,10.0,Calm,Calm,-,0.01,,Overcast,0,2013-10-14 05:55:00
1:15 AM,69.4,67.5,93,30.10,10.0,SE,3.5,-,N/A,,Overcast,140,2013-10-14 06:15:00
1:35 AM,69.4,67.6,94,30.11,10.0,Calm,Calm,-,N/A,,Overcast,0,2013-10-14 06:35:00
1:55 AM,69.4,67.6,94,30.11,10.0,SSE,3.5,-,N/A,,Overcast,160,2013-10-14 06:55:00
2:15 AM,69.4,67.6,94,30.11,10.0,SSE,3.5,-,N/A,,Overcast,150,2013-10-14 07:15:00
2:35 AM,69.3,67.3,93,30.10,10.0,Calm,Calm,-,0.01,,Overcast,0,2013-10-14 07:35:00
2:55 AM,69.3,67.5,94,30.10,10.0,Calm,Calm,-,0.01,,Overcast,0,2013-10-14 07:55:00
3:15 AM,69.4,67.5,93,30.10,10.0,South,3.5,-,N/A,,Overcast,180,2013-10-14 08:15:00
3:35 AM,69.1,67.1,93,30.09,10.0,Calm,Calm,-,N/A,,Overcast,0,2013-10-14 08:35:00
3:55 AM,69.1,67.3,94,30.09,10.0,SSE,4.6,-,N/A,,Overcast,150,2013-10-14 08:55:00
4:15 AM,69.1,67.1,93,30.07,10.0,SE,3.5,-,N/A,,Overcast,140,2013-10-14 09:15:00
4:35 AM,68.9,67.3,95,30.07,10.0,SSE,3.5,-,N/A,,Overcast,150,2013-10-14 09:35:00
4:55 AM,68.9,67.1,94,30.07,10.0,Calm,Calm,-,N/A,,Mostly Cloudy,0,2013-10-14 09:55:00
5:15 AM,68.9,67.1,94,30.08,7.0,Calm,Calm,-,N/A,,Overcast,0,2013-10-14 10:15:00
5:35 AM,68.9,67.3,95,30.08,7.0,Calm,Calm,-,N/A,,Overcast,0,2013-10-14 10:35:00
5:55 AM,69.1,67.5,95,30.08,10.0,SSE,4.6,-,N/A,,Overcast,150,2013-10-14 10:55:00
6:15 AM,69.4,67.5,93,30.08,10.0,SSE,3.5,-,N/A,,Overcast,160,2013-10-14 11:15:00
6:35 AM,69.6,67.5,93,30.08,10.0,SSE,6.9,-,N/A,,Overcast,160,2013-10-14 11:35:00
6:55 AM,69.8,67.3,92,30.08,10.0,SSE,6.9,-,N/A,,Overcast,150,2013-10-14 11:55:00
7:15 AM,69.8,67.3,92,30.08,10.0,South,3.5,-,N/A,,Overcast,170,2013-10-14 12:15:00
7:35 AM,69.6,67.1,92,30.08,10.0,SSE,4.6,-,N/A,,Overcast,150,2013-10-14 12:35:00
7:55 AM,69.6,67.1,92,30.08,10.0,SSE,5.8,-,N/A,,Overcast,160,2013-10-14 12:55:00
8:15 AM,69.8,67.3,92,30.08,10.0,SSE,6.9,-,N/A,,Overcast,160,2013-10-14 13:15:00
8:35 AM,70.2,67.5,91,30.08,10.0,SSE,6.9,-,N/A,,Mostly Cloudy,160,2013-10-14 13:35:00
8:55 AM,70.7,67.6,90,30.08,10.0,SSE,5.8,-,N/A,,Mostly Cloudy,160,2013-10-14 13:55:00
9:15 AM,71.1,67.3,88,30.09,10.0,South,6.9,-,N/A,,Mostly Cloudy,170,2013-10-14 14:15:00
9:35 AM,71.1,67.3,88,30.09,10.0,South,8.1,-,N/A,,Overcast,180,2013-10-14 14:35:00
9:55 AM,72.0,67.3,85,30.09,10.0,South,9.2,-,N/A,,Overcast,190,2013-10-14 14:55:00
10:15 AM,72.0,67.3,85,30.09,10.0,South,9.2,-,N/A,,Overcast,180,2013-10-14 15:15:00
10:35 AM,71.1,66.6,86,30.09,10.0,SSW,12.7,16.1,N/A,Rain,Rain,200,2013-10-14 15:35:00
10:55 AM,71.6,67.1,86,30.09,10.0,SSW,6.9,-,N/A,,Overcast,200,2013-10-14 15:55:00
11:15 AM,73.4,67.1,81,30.07,10.0,South,12.7,-,N/A,,Overcast,190,2013-10-14 16:15:00
11:35 AM,74.3,66.9,78,30.08,10.0,SSW,12.7,19.6,N/A,,Overcast,210,2013-10-14 16:35:00
11:55 AM,73.9,66.9,79,30.07,10.0,SSW,11.5,16.1,N/A,,Overcast,200,2013-10-14 16:55:00
12:15 PM,73.6,67.3,81,30.06,10.0,SSW,12.7,-,N/A,,Overcast,210,2013-10-14 17:15:00
12:35 PM,74.5,67.1,78,30.06,10.0,South,9.2,16.1,N/A,,Overcast,190,2013-10-14 17:35:00
12:55 PM,75.7,67.3,75,30.06,10.0,SSW,11.5,16.1,N/A,,Overcast,200,2013-10-14 17:55:00
1:15 PM,75.4,66.2,73,30.04,10.0,South,10.4,-,N/A,,Overcast,190,2013-10-14 18:15:00
1:35 PM,77.2,66.6,70,30.02,10.0,South,12.7,18.4,N/A,,Mostly Cloudy,190,2013-10-14 18:35:00
1:55 PM,77.4,66.0,68,30.02,10.0,SSW,9.2,17.3,N/A,,Mostly Cloudy,200,2013-10-14 18:55:00
2:15 PM,77.9,65.5,65,30.00,10.0,SSW,11.5,17.3,N/A,,Scattered Clouds,200,2013-10-14 19:15:00
2:35 PM,79.0,65.7,64,29.98,10.0,South,9.2,-,N/A,,Scattered Clouds,170,2013-10-14 19:35:00
2:55 PM,78.6,64.9,63,29.98,10.0,South,13.8,-,N/A,,Scattered Clouds,190,2013-10-14 19:55:00
3:15 PM,79.5,64.2,59,29.97,10.0,SSW,13.8,-,N/A,,Scattered Clouds,200,2013-10-14 20:15:00
3:35 PM,79.7,64.4,59,29.97,10.0,SSW,12.7,20.7,N/A,,Scattered Clouds,210,2013-10-14 20:35:00
3:55 PM,80.6,64.8,58,29.97,10.0,South,10.4,-,N/A,,Scattered Clouds,180,2013-10-14 20:55:00
4:15 PM,80.8,64.9,58,29.96,10.0,South,10.4,17.3,N/A,,Scattered Clouds,190,2013-10-14 21:15:00
4:35 PM,80.4,64.9,59,29.96,10.0,SSW,11.5,-,N/A,,Scattered Clouds,200,2013-10-14 21:35:00
4:55 PM,78.8,64.8,62,29.95,10.0,SSW,9.2,-,N/A,,Scattered Clouds,200,2013-10-14 21:55:00
5:15 PM,79.2,63.5,59,29.95,10.0,South,8.1,-,N/A,,Mostly Cloudy,180,2013-10-14 22:15:00
5:35 PM,80.2,64.2,58,29.95,10.0,South,8.1,-,N/A,,Mostly Cloudy,170,2013-10-14 22:35:00
5:55 PM,78.8,62.8,58,29.96,10.0,South,9.2,17.3,N/A,,Scattered Clouds,180,2013-10-14 22:55:00
6:15 PM,78.6,63.5,60,29.97,10.0,South,10.4,-,N/A,,Scattered Clouds,170,2013-10-14 23:15:00
6:35 PM,77.9,63.9,62,29.97,10.0,South,8.1,-,N/A,,Mostly Cloudy,170,2013-10-14 23:35:00
6:55 PM,77.2,64.0,64,29.97,10.0,South,6.9,-,N/A,,Mostly Cloudy,190,2013-10-14 23:55:00
7:15 PM,76.5,64.4,66,29.98,10.0,South,6.9,-,N/A,,Overcast,170,2013-10-15 00:15:00
7:35 PM,76.1,64.8,68,29.98,10.0,South,5.8,-,N/A,,Overcast,180,2013-10-15 00:35:00
7:55 PM,75.4,65.3,71,29.98,10.0,SSE,3.5,-,N/A,,Overcast,160,2013-10-15 00:55:00
8:15 PM,75.2,65.3,71,29.98,10.0,SSE,3.5,-,N/A,,Overcast,150,2013-10-15 01:15:00
8:35 PM,74.7,65.3,73,29.99,10.0,Calm,Calm,-,N/A,,Mostly Cloudy,0,2013-10-15 01:35:00
8:55 PM,74.3,65.3,73,29.99,10.0,SE,3.5,-,N/A,,Overcast,130,2013-10-15 01:55:00
9:15 PM,73.4,66.0,78,30.00,10.0,SSE,4.6,-,N/A,,Overcast,150,2013-10-15 02:15:00
9:35 PM,72.7,66.6,81,30.01,10.0,SSE,3.5,-,N/A,,Scattered Clouds,160,2013-10-15 02:35:00
9:55 PM,72.5,67.8,85,30.01,10.0,SSE,4.6,-,N/A,,Scattered Clouds,150,2013-10-15 02:55:00
10:15 PM,72.5,68.5,87,30.02,10.0,SSE,5.8,-,N/A,,Clear,160,2013-10-15 03:15:00
10:35 PM,72.5,68.7,88,30.02,10.0,SSE,5.8,-,N/A,,Scattered Clouds,160,2013-10-15 03:35:00
10:55 PM,72.5,68.9,88,30.01,10.0,SSE,5.8,-,N/A,,Scattered Clouds,150,2013-10-15 03:55:00
11:15 PM,72.0,68.9,90,30.01,10.0,SSE,5.8,-,N/A,,Scattered Clouds,160,2013-10-15 04:15:00
11:35 PM,72.0,68.9,90,30.01,10.0,SSE,5.8,-,N/A,,Mostly Cloudy,160,2013-10-15 04:35:00
11:55 PM,72.0,68.9,90,30.02,10.0,South,5.8,-,N/A,,Mostly Cloudy,170,2013-10-15 04:55:00